Location: Kerguer�zec
(48.4509°N, 4.7600°W)
Time: 14:28:09
(UTC+00:00)

ISS - Visible Passes

Search period start: 09 May 2021 00:00
Search period end: 19 May 2021 00:00
Orbit: 418 x 421 km, 51.6° (Epoch: 09 May)

Date Brightness Start Highest point End Pass type
(mag) Time Alt. Az. Time Alt. Az. Time Alt. Az.
09 May -3.4 01:36:22 63° NNE 01:36:22 63° NNE 01:39:30 10° ENE visible
09 May -2.8 03:09:56 10° WNW 03:13:13 47° N 03:16:31 10° E visible
10 May -2.0 00:50:22 27° ENE 00:50:22 27° ENE 00:52:04 10° ENE visible
10 May -2.8 02:23:18 17° WNW 02:25:42 46° N 02:28:59 10° ENE visible
10 May -3.5 03:59:23 10° WNW 04:02:47 76° NNE 04:06:09 10° ESE visible
11 May -0.9 00:04:20 12° ENE 00:04:20 12° ENE 00:04:36 10° ENE visible
11 May -2.9 01:37:15 36° NW 01:38:11 49° N 01:41:29 10° ENE visible
11 May -3.2 03:11:56 10° WNW 03:15:18 61° NNE 03:18:39 10° E visible
12 May -2.8 00:51:10 48° NNE 00:51:10 48° NNE 00:54:00 10° ENE visible
12 May -2.9 02:24:29 10° WNW 02:27:48 52° N 02:31:07 10° E visible
12 May -3.7 04:01:21 10° WNW 04:04:41 57° SSW 04:08:00 10° SE visible
13 May -1.9 00:05:00 24° ENE 00:05:00 24° ENE 00:06:33 10° ENE visible
13 May -2.8 01:37:55 17° WNW 01:40:16 47° N 01:43:34 10° E visible
13 May -3.8 03:13:52 10° WNW 03:17:15 81° SSW 03:20:39 10° ESE visible
13 May -1.2 23:18:35 14° ENE 23:18:35 14° ENE 23:19:05 10° ENE visible
14 May -2.7 00:51:29 30° NW 00:52:44 46° N 00:56:01 10° ENE visible
14 May -3.6 02:26:25 10° WNW 02:29:49 76° NNE 02:33:12 10° ESE visible
14 May -2.1 20:49:55 10° S 20:51:55 15° SE 20:53:55 10° E visible
14 May -3.9 22:24:54 10° WSW 22:28:15 72° SSE 22:31:37 10° ENE visible
15 May -2.8 00:01:54 10° W 00:05:12 48° N 00:08:30 10° ENE visible
15 May -3.3 01:38:58 10° WNW 01:42:19 61° NNE 01:45:40 10° E visible
15 May -3.3 03:15:52 10° WNW 03:19:03 39° SSW 03:22:14 10° SE visible
15 May -3.6 21:37:35 10° SW 21:40:50 49° SSE 21:44:07 10° ENE visible
15 May -3.1 23:14:21 10° W 23:17:40 54° N 23:21:00 10° ENE visible
16 May -3.0 00:51:28 10° WNW 00:54:48 52° N 00:58:07 10° E visible
16 May -3.8 02:28:21 10° WNW 02:31:40 57° SSW 02:35:00 10° SE visible
16 May -3.1 20:50:24 10° SSW 20:53:28 33° SE 20:56:33 10° E visible
16 May -3.4 22:26:48 10° W 22:30:09 66° NNW 22:33:32 10° ENE visible
17 May -2.8 00:03:58 10° WNW 00:07:15 47° N 00:10:33 10° E visible
17 May -3.9 01:40:51 10° WNW 01:44:15 81° SSW 01:47:37 10° ESE visible
17 May -2.3 03:19:12 14° WSW 03:20:40 18° SW 03:22:59 10° S visible
17 May -3.7 21:39:17 10° WSW 21:42:40 84° NNW 21:46:04 10° ENE visible
17 May -2.7 23:16:26 10° WNW 23:19:42 46° N 23:22:50 11° ENE visible
18 May -2.8 00:53:23 10° WNW 00:55:43 40° WNW 00:55:43 40° WNW visible
18 May -3.8 20:51:51 10° WSW 20:55:12 72° SSE 20:58:35 10° ENE visible
18 May -2.8 22:28:52 10° W 22:32:09 48° N 22:35:27 10° ENE visible
